User: anonymous   Login
Location: Caltech
(34.1382°N, 118.1253°W)
Time: 20:26:29
(UTC-08:00)
Language:

ADEOS II - Orbit

View from above orbital plane
View from above orbital plane
View from above satellite
View from above satellite

Ground track
Ground track

The orbit data is extracted from the following two-line orbital elements,

1 27597U 02056A   16041.85274693  .00000147  00000-0  77162-4 0  9998
2 27597  98.3093  28.1591 0001312  39.4857  19.7215 14.27179458685195
Epoch (UTC): 10 February 2016 20:27:57
Eccentricity: 0.0001312
inclination: 98.3093°
perigee height: 800 km
apogee height: 802 km
right ascension of ascending node: 28.1591°
argument of perigee: 39.4857°
revolutions per day: 14.27179458
mean anomaly at epoch: 19.7215°
orbit number at epoch: 68519

The dashed part of the orbit path shows where the satellite is in the earth's shadow,  

DLR